This is the latest recevied weather packets stored in our database for station/object W2EH. If no packets are shown the sender has not sent any weather packets the latest 10 day(s).
| Time | Temp. | Humidity | Pressure | Rain* | Wind** | Luminosity | Snow |
|---|---|---|---|---|---|---|---|
| 1777336117 | 28.89° C | 70% | 1007.5 hPa | 0 mm | - | 18 W/m² | - |
| 1777335813 | 28.89° C | 70% | 1007.4 hPa | 0 mm | - | 18 W/m² | - |
| 1777335511 | 29.44° C | 69% | 1007.6 hPa | 0 mm | - | 27 W/m² | - |
| 1777335207 | 29.44° C | 69% | 1007.7 hPa | 0 mm | - | 35 W/m² | - |
| 1777334905 | 29.44° C | 68% | 1007.9 hPa | 0 mm | - | 32 W/m² | - |
| 1777334603 | 29.44° C | 68% | 1007.6 hPa | 0 mm | - | 54 W/m² | - |
| 1777334300 | 29.44° C | 68% | 1007.6 hPa | 0 mm | - | 34 W/m² | - |
| 1777333995 | 29.44° C | 68% | 1007.9 hPa | 0 mm | - | 32 W/m² | - |
| 1777333691 | 29.44° C | 68% | 1007.8 hPa | 0 mm | - | 45 W/m² | - |
| 1777333388 | 30° C | 68% | 1007.7 hPa | 0 mm | - | 54 W/m² | - |
| 1777333086 | 30° C | 68% | 1007.5 hPa | 0 mm | - | 56 W/m² | - |
| 1777332783 | 30° C | 67% | 1007.6 hPa | 0 mm | - | 53 W/m² | - |
| 1777332480 | 30° C | 67% | 1007.8 hPa | 0 mm | - | 61 W/m² | - |
| 1777332176 | 30° C | 67% | 1008 hPa | 0 mm | - | 63 W/m² | - |
| 1777331873 | 30° C | 66% | 1008.2 hPa | 0 mm | - | 58 W/m² | - |
| 1777331571 | 30° C | 66% | 1008.1 hPa | 0 mm | - | 75 W/m² | - |
| 1777331268 | 30° C | 65% | 1008 hPa | 0 mm | - | 66 W/m² | - |
| 1777330966 | 30° C | 65% | 1008 hPa | 0 mm | - | 68 W/m² | - |
| 1777330662 | 30° C | 66% | 1007.8 hPa | 0 mm | - | 89 W/m² | - |
| 1777330359 | 30° C | 66% | 1007.7 hPa | 0 mm | - | 97 W/m² | - |
| 1777330057 | 30.56° C | 64% | 1007.8 hPa | 0 mm | - | 56 W/m² | - |
| 1777329756 | 30.56° C | 64% | 1007.9 hPa | 0 mm | - | 63 W/m² | - |
| 1777329454 | 31.11° C | 64% | 1008 hPa | 0 mm | - | 94 W/m² | - |
| 1777329151 | 31.11° C | 64% | 1007.7 hPa | 0 mm | - | 109 W/m² | - |
| 1777328848 | 31.11° C | 64% | 1007.5 hPa | 0 mm | - | 133 W/m² | - |
* Rain latest hour (hover to see other rain measurements)
** Current wind speed in m/s (hover to see current wind gust speed)